Time,TemperatureF,DewpointF,PressureIn,WindDirection,WindDirectionDegrees,WindSpeedMPH,WindSpeedGustMPH,Humidity,HourlyPrecipIn,Conditions,Clouds,dailyrainin,SoftwareType,DateUTC
2013-11-19 00:01:00,43.9,26.7,29.71,SSE,158,1.7,3.8,51,-99.99,,,-99.99,WSDL version 420,2013-11-19 05:01:00,
2013-11-19 00:04:00,43.5,26.6,29.71,SSW,203,1.7,2.5,51,-99.99,,,-99.99,WSDL version 420,2013-11-19 05:04:00,
2013-11-19 00:06:00,43.4,26.5,29.71,SSW,195,4.0,5.4,51,-99.99,,,-99.99,WSDL version 420,2013-11-19 05:06:00,
2013-11-19 00:12:00,43.6,26.5,29.71,SE,135,1.7,5.4,51,-99.99,,,-99.99,WSDL version 420,2013-11-19 05:12:00,
2013-11-19 00:13:00,43.6,26.5,29.71,SE,126,2.1,5.4,51,-99.99,,,-99.99,WSDL version 420,2013-11-19 05:13:00,
2013-11-19 00:15:00,43.6,26.5,29.71,South,180,1.5,5.4,51,-99.99,,,-99.99,WSDL version 420,2013-11-19 05:15:00,
2013-11-19 00:21:00,43.7,26.4,29.71,South,188,3.4,5.4,50,-99.99,,,-99.99,WSDL version 420,2013-11-19 05:21:00,
2013-11-19 00:27:00,43.7,26.3,29.71,North,8,2.3,5.4,50,-99.99,,,-99.99,WSDL version 420,2013-11-19 05:27:00,
2013-11-19 00:33:00,43.8,26.5,29.71,West,270,1.9,4.3,50,-99.99,,,-99.99,WSDL version 420,2013-11-19 05:33:00,
2013-11-19 00:39:00,44.2,27.1,29.71,NE,45,1.8,5.8,51,-99.99,,,-99.99,WSDL version 420,2013-11-19 05:39:00,
2013-11-19 00:45:00,44.5,27.3,29.71,ENE,62,4.0,6.0,50,-99.99,,,-99.99,WSDL version 420,2013-11-19 05:45:00,
2013-11-19 00:51:00,44.6,26.8,29.71,ENE,60,2.8,6.5,49,-99.99,,,-99.99,WSDL version 420,2013-11-19 05:51:00,
2013-11-19 00:57:00,44.5,26.8,29.71,SW,219,4.5,9.8,50,-99.99,,,-99.99,WSDL version 420,2013-11-19 05:57:00,
2013-11-19 01:03:00,44.1,26.6,29.71,ESE,105,2.5,7.8,50,-99.99,,,-99.99,WSDL version 420,2013-11-19 06:03:00,
2013-11-19 01:09:00,43.7,26.3,29.71,North,11,4.8,8.5,50,-99.99,,,-99.99,WSDL version 420,2013-11-19 06:09:00,
2013-11-19 01:15:00,43.3,25.9,29.74,ESE,108,3.8,10.7,50,-99.99,,,-99.99,WSDL version 420,2013-11-19 06:15:00,
2013-11-19 01:21:00,43.0,25.7,29.71,South,180,2.8,7.2,50,-99.99,,,-99.99,WSDL version 420,2013-11-19 06:21:00,
2013-11-19 01:27:00,42.6,25.6,29.71,SW,233,3.2,3.8,51,-99.99,,,-99.99,WSDL version 420,2013-11-19 06:27:00,
2013-11-19 01:33:00,42.4,25.6,29.71,NE,45,3.4,4.0,51,-99.99,,,-99.99,WSDL version 420,2013-11-19 06:33:00,
2013-11-19 01:39:00,42.4,25.5,29.74,South,169,2.3,6.5,51,-99.99,,,-99.99,WSDL version 420,2013-11-19 06:39:00,
2013-11-19 01:45:00,41.9,25.1,29.74,ENE,75,2.6,4.9,51,-99.99,,,-99.99,WSDL version 420,2013-11-19 06:45:00,
2013-11-19 01:51:00,42.0,25.4,29.77,NE,34,1.9,7.8,52,-99.99,,,-99.99,WSDL version 420,2013-11-19 06:51:00,
2013-11-19 01:57:00,42.0,25.7,29.77,SW,225,2.6,3.6,52,-99.99,,,-99.99,WSDL version 420,2013-11-19 06:57:00,
2013-11-19 02:03:00,41.7,25.4,29.77,East,90,2.9,3.6,52,-99.99,,,-99.99,WSDL version 420,2013-11-19 07:03:00,
2013-11-19 02:09:00,41.8,25.6,29.77,South,180,2.9,3.4,53,-99.99,,,-99.99,WSDL version 420,2013-11-19 07:09:00,
2013-11-19 02:15:00,42.0,26.0,29.77,ENE,60,1.9,4.9,53,-99.99,,,-99.99,WSDL version 420,2013-11-19 07:15:00,
2013-11-19 02:22:00,42.1,26.2,29.77,South,188,2.8,3.6,53,-99.99,,,-99.99,WSDL version 420,2013-11-19 07:22:00,
2013-11-19 02:28:00,41.9,25.8,29.77,East,90,3.1,3.8,52,-99.99,,,-99.99,WSDL version 420,2013-11-19 07:28:00,
2013-11-19 02:34:00,41.8,25.5,29.77,ENE,68,4.8,6.3,52,-99.99,,,-99.99,WSDL version 420,2013-11-19 07:34:00,
2013-11-19 02:40:00,41.7,25.2,29.77,South,173,3.1,6.5,51,-99.99,,,-99.99,WSDL version 420,2013-11-19 07:40:00,
2013-11-19 02:46:00,41.6,24.7,29.77,East,83,3.5,6.9,51,-99.99,,,-99.99,WSDL version 420,2013-11-19 07:46:00,
2013-11-19 02:52:00,-999.0,-99.9,29.77,SSE,150,4.1,6.9,-999,-99.99,,,-99.99,WSDL version 420,2013-11-19 07:52:00,
2013-11-19 02:58:00,41.5,24.6,29.77,East,101,4.9,6.5,51,-99.99,,,-99.99,WSDL version 420,2013-11-19 07:58:00,
2013-11-19 03:04:00,41.4,24.1,29.77,ESE,113,3.1,6.5,50,-99.99,,,-99.99,WSDL version 420,2013-11-19 08:04:00,
2013-11-19 03:10:00,41.4,24.3,29.77,WSW,248,2.0,6.5,50,-99.99,,,-99.99,WSDL version 420,2013-11-19 08:10:00,
2013-11-19 03:16:00,41.2,24.0,29.77,SE,135,5.7,6.5,50,-99.99,,,-99.99,WSDL version 420,2013-11-19 08:16:00,
2013-11-19 03:22:00,41.1,23.9,29.77,SE,135,2.0,6.5,50,-99.99,,,-99.99,WSDL version 420,2013-11-19 08:22:00,
2013-11-19 03:28:00,40.9,23.7,29.77,NW,304,4.5,5.8,50,-99.99,,,-99.99,WSDL version 420,2013-11-19 08:28:00,
2013-11-19 03:34:00,40.7,23.5,29.77,ESE,113,5.0,6.3,50,-99.99,,,-99.99,WSDL version 420,2013-11-19 08:34:00,
2013-11-19 03:40:00,40.8,23.6,29.77,SE,143,4.0,6.3,50,-99.99,,,-99.99,WSDL version 420,2013-11-19 08:40:00,
2013-11-19 03:46:00,40.6,23.1,29.77,ENE,68,4.6,7.2,49,-99.99,,,-99.99,WSDL version 420,2013-11-19 08:46:00,
2013-11-19 03:52:00,40.8,23.3,29.80,South,180,5.9,6.0,50,-99.99,,,-99.99,WSDL version 420,2013-11-19 08:52:00,
2013-11-19 03:58:00,40.5,22.9,29.80,WNW,293,3.1,9.2,49,-99.99,,,-99.99,WSDL version 420,2013-11-19 08:58:00,
2013-11-19 04:04:00,40.4,22.8,29.80,West,263,2.2,10.1,49,-99.99,,,-99.99,WSDL version 420,2013-11-19 09:04:00,
2013-11-19 04:10:00,40.3,22.6,29.80,NNW,338,2.7,10.1,49,-99.99,,,-99.99,WSDL version 420,2013-11-19 09:10:00,
2013-11-19 04:16:00,40.2,22.4,29.80,SE,146,5.1,8.5,48,-99.99,,,-99.99,WSDL version 420,2013-11-19 09:16:00,
2013-11-19 04:22:00,39.9,22.3,29.80,ESE,120,4.0,6.5,49,-99.99,,,-99.99,WSDL version 420,2013-11-19 09:22:00,
2013-11-19 04:28:00,39.7,21.8,29.80,SSE,165,4.0,9.8,48,-99.99,,,-99.99,WSDL version 420,2013-11-19 09:28:00,
2013-11-19 04:34:00,39.5,21.9,29.80,West,278,3.2,9.8,49,-99.99,,,-99.99,WSDL version 420,2013-11-19 09:34:00,
2013-11-19 04:40:00,39.3,21.7,29.80,ESE,120,2.5,5.6,49,-99.99,,,-99.99,WSDL version 420,2013-11-19 09:40:00,
2013-11-19 04:46:00,39.1,21.6,29.80,SW,214,3.9,5.6,49,-99.99,,,-99.99,WSDL version 420,2013-11-19 09:46:00,
2013-11-19 04:52:00,38.8,21.2,29.80,SSW,203,1.9,5.6,49,-99.99,,,-99.99,WSDL version 420,2013-11-19 09:52:00,
2013-11-19 04:58:00,38.6,21.1,29.80,SE,143,3.6,4.7,49,-99.99,,,-99.99,WSDL version 420,2013-11-19 09:58:00,
2013-11-19 05:04:00,38.5,21.1,29.80,ESE,105,2.8,4.9,49,-99.99,,,-99.99,WSDL version 420,2013-11-19 10:04:00,
2013-11-19 05:10:00,38.2,21.2,29.80,ESE,120,1.8,4.9,50,-99.99,,,-99.99,WSDL version 420,2013-11-19 10:10:00,
2013-11-19 05:17:00,38.0,21.0,29.80,SSE,150,2.5,3.6,50,-99.99,,,-99.99,WSDL version 420,2013-11-19 10:17:00,
2013-11-19 05:23:00,37.8,20.8,29.80,South,191,2.7,3.6,50,-99.99,,,-99.99,WSDL version 420,2013-11-19 10:23:00,
2013-11-19 05:29:00,37.5,20.6,29.80,SSE,158,2.8,3.6,50,-99.99,,,-99.99,WSDL version 420,2013-11-19 10:29:00,
2013-11-19 05:35:00,37.3,20.6,29.80,East,96,3.4,6.0,50,-99.99,,,-99.99,WSDL version 420,2013-11-19 10:35:00,
2013-11-19 05:41:00,37.3,20.4,29.80,SE,146,1.8,6.0,50,-99.99,,,-99.99,WSDL version 420,2013-11-19 10:41:00,
2013-11-19 05:47:00,37.2,20.6,29.80,SW,218,1.9,4.7,51,-99.99,,,-99.99,WSDL version 420,2013-11-19 10:47:00,
2013-11-19 05:53:00,37.4,20.3,29.83,NW,315,3.4,5.4,49,-99.99,,,-99.99,WSDL version 420,2013-11-19 10:53:00,
2013-11-19 05:59:00,37.5,20.6,29.83,ESE,105,3.8,5.4,50,-99.99,,,-99.99,WSDL version 420,2013-11-19 10:59:00,
2013-11-19 06:05:00,37.5,20.5,29.83,SSE,163,4.1,5.4,50,-99.99,,,-99.99,WSDL version 420,2013-11-19 11:05:00,
2013-11-19 06:11:00,37.6,20.7,29.83,NNW,330,1.7,5.4,50,-99.99,,,-99.99,WSDL version 420,2013-11-19 11:11:00,
2013-11-19 06:17:00,37.5,20.5,29.83,SSW,210,3.8,6.0,50,-99.99,,,-99.99,WSDL version 420,2013-11-19 11:17:00,
2013-11-19 06:23:00,37.5,20.7,29.83,SW,225,2.0,6.0,50,-99.99,,,-99.99,WSDL version 420,2013-11-19 11:23:00,
2013-11-19 06:29:00,37.6,20.6,29.83,SSE,165,6.7,8.7,50,-99.99,,,-99.99,WSDL version 420,2013-11-19 11:29:00,
2013-11-19 06:35:00,37.7,20.7,29.85,South,180,2.0,8.7,50,-99.99,,,-99.99,WSDL version 420,2013-11-19 11:35:00,
2013-11-19 06:42:00,37.8,20.9,29.85,West,278,1.3,4.0,50,-99.99,,,-99.99,WSDL version 420,2013-11-19 11:42:00,
2013-11-19 06:48:00,37.8,21.0,29.85,SSE,150,0.7,3.4,51,-99.99,,,-99.99,WSDL version 420,2013-11-19 11:48:00,
2013-11-19 06:54:00,37.5,21.0,29.85,NNE,15,2.4,4.3,51,-99.99,,,-99.99,WSDL version 420,2013-11-19 11:54:00,
2013-11-19 07:00:00,37.7,21.2,29.85,NE,45,2.4,4.9,51,-99.99,,,-99.99,WSDL version 420,2013-11-19 12:00:00,
2013-11-19 07:06:00,37.6,21.1,29.85,West,264,2.6,5.8,51,-99.99,,,-99.99,WSDL version 420,2013-11-19 12:06:00,
2013-11-19 07:12:00,37.9,21.4,29.85,SSW,195,3.3,6.0,51,-99.99,,,-99.99,WSDL version 420,2013-11-19 12:12:00,
2013-11-19 07:18:00,38.1,21.5,29.85,NE,56,3.6,6.0,51,-99.99,,,-99.99,WSDL version 420,2013-11-19 12:18:00,
2013-11-19 07:24:00,38.5,22.0,29.85,WNW,300,4.3,7.2,51,-99.99,,,-99.99,WSDL version 420,2013-11-19 12:24:00,
2013-11-19 07:30:00,38.8,22.2,29.85,NE,45,3.5,7.2,51,-99.99,,,-99.99,WSDL version 420,2013-11-19 12:30:00,
2013-11-19 07:36:00,39.0,22.4,29.88,SSE,158,2.6,4.3,51,-99.99,,,-99.99,WSDL version 420,2013-11-19 12:36:00,
2013-11-19 07:42:00,39.2,22.6,29.88,SSE,165,2.2,3.4,51,-99.99,,,-99.99,WSDL version 420,2013-11-19 12:42:00,
2013-11-19 07:48:00,39.4,22.4,29.88,SE,143,3.2,4.3,50,-99.99,,,-99.99,WSDL version 420,2013-11-19 12:48:00,
2013-11-19 07:54:00,39.7,22.6,29.88,SE,135,3.6,4.3,50,-99.99,,,-99.99,WSDL version 420,2013-11-19 12:54:00,
2013-11-19 08:00:00,40.1,23.3,29.88,SSE,158,2.0,5.4,51,-99.99,,,-99.99,WSDL version 420,2013-11-19 13:00:00,
2013-11-19 08:06:00,40.3,23.5,29.88,SSE,150,2.1,6.0,51,-99.99,,,-99.99,WSDL version 420,2013-11-19 13:06:00,
2013-11-19 08:12:00,40.7,24.0,29.88,NNW,345,2.2,3.8,51,-99.99,,,-99.99,WSDL version 420,2013-11-19 13:12:00,
2013-11-19 08:19:00,41.0,24.1,29.88,ESE,120,2.5,3.8,50,-99.99,,,-99.99,WSDL version 420,2013-11-19 13:19:00,
2013-11-19 08:25:00,41.5,24.8,29.88,East,90,2.6,4.3,51,-99.99,,,-99.99,WSDL version 420,2013-11-19 13:25:00,
2013-11-19 08:31:00,41.7,24.5,29.88,SW,214,3.7,8.9,50,-99.99,,,-99.99,WSDL version 420,2013-11-19 13:31:00,
2013-11-19 08:37:00,42.4,25.2,29.88,SE,143,2.5,8.9,50,-99.99,,,-99.99,WSDL version 420,2013-11-19 13:37:00,
2013-11-19 08:43:00,42.7,25.4,29.88,SSE,152,3.1,6.9,50,-99.99,,,-99.99,WSDL version 420,2013-11-19 13:43:00,
2013-11-19 08:49:00,43.3,26.0,29.88,ESE,120,4.5,6.9,50,-99.99,,,-99.99,WSDL version 420,2013-11-19 13:49:00,
2013-11-19 08:55:00,43.8,26.4,29.88,SSW,195,4.8,6.5,50,-99.99,,,-99.99,WSDL version 420,2013-11-19 13:55:00,
2013-11-19 09:01:00,44.2,26.6,29.88,SE,135,3.6,6.5,49,-99.99,,,-99.99,WSDL version 420,2013-11-19 14:01:00,
2013-11-19 09:07:00,44.7,26.7,29.88,SW,225,6.4,8.5,49,-99.99,,,-99.99,WSDL version 420,2013-11-19 14:07:00,
2013-11-19 09:13:00,44.7,26.6,29.91,SE,126,4.2,8.5,48,-99.99,,,-99.99,WSDL version 420,2013-11-19 14:13:00,
2013-11-19 09:19:00,45.0,27.0,29.91,SE,143,3.6,6.9,49,-99.99,,,-99.99,WSDL version 420,2013-11-19 14:19:00,
2013-11-19 09:25:00,45.4,26.9,29.91,East,83,2.8,5.6,48,-99.99,,,-99.99,WSDL version 420,2013-11-19 14:25:00,
2013-11-19 09:28:00,45.6,27.1,29.91,South,169,4.8,5.6,48,-99.99,,,-99.99,WSDL version 420,2013-11-19 14:28:00,
2013-11-19 09:34:00,46.2,27.3,29.91,SE,146,4.9,6.5,47,-99.99,,,-99.99,WSDL version 420,2013-11-19 14:34:00,
2013-11-19 09:40:00,46.3,27.4,29.91,NE,38,5.2,6.5,48,-99.99,,,-99.99,WSDL version 420,2013-11-19 14:40:00,
2013-11-19 09:46:00,46.8,27.4,29.91,East,90,3.3,6.5,47,-99.99,,,-99.99,WSDL version 420,2013-11-19 14:46:00,
2013-11-19 09:52:00,46.9,27.7,29.91,ENE,60,4.3,11.0,47,-99.99,,,-99.99,WSDL version 420,2013-11-19 14:52:00,
2013-11-19 09:58:00,46.7,27.2,29.91,SSW,210,2.5,11.0,46,-99.99,,,-99.99,WSDL version 420,2013-11-19 14:58:00,
2013-11-19 10:04:00,46.9,27.2,29.91,East,90,5.8,6.3,46,-99.99,,,-99.99,WSDL version 420,2013-11-19 15:04:00,
2013-11-19 10:10:00,47.7,28.3,29.91,SSE,150,2.3,5.8,47,-99.99,,,-99.99,WSDL version 420,2013-11-19 15:10:00,
2013-11-19 10:16:00,47.8,28.2,29.91,NE,38,4.6,5.6,47,-99.99,,,-99.99,WSDL version 420,2013-11-19 15:16:00,
2013-11-19 10:22:00,47.8,28.0,29.91,ESE,120,3.8,5.6,47,-99.99,,,-99.99,WSDL version 420,2013-11-19 15:22:00,
2013-11-19 10:28:00,48.2,28.2,29.91,NNE,17,3.9,10.5,45,-99.99,,,-99.99,WSDL version 420,2013-11-19 15:28:00,
2013-11-19 10:34:00,47.6,27.1,29.94,SE,140,3.8,6.5,45,-99.99,,,-99.99,WSDL version 420,2013-11-19 15:34:00,
2013-11-19 10:40:00,48.3,27.9,29.94,SSW,210,4.3,5.6,44,-99.99,,,-99.99,WSDL version 420,2013-11-19 15:40:00,
2013-11-19 10:46:00,48.1,27.5,29.94,SSE,158,3.4,10.5,44,-99.99,,,-99.99,WSDL version 420,2013-11-19 15:46:00,
2013-11-19 10:52:00,48.3,27.2,29.94,SE,135,5.3,6.7,44,-99.99,,,-99.99,WSDL version 420,2013-11-19 15:52:00,
2013-11-19 10:58:00,48.4,27.5,29.94,SE,135,4.9,6.7,45,-99.99,,,-99.99,WSDL version 420,2013-11-19 15:58:00,
2013-11-19 11:04:00,48.4,27.2,29.94,SE,129,3.9,4.9,43,-99.99,,,-99.99,WSDL version 420,2013-11-19 16:04:00,
2013-11-19 11:11:00,48.6,27.5,29.94,SE,135,5.8,6.3,44,-99.99,,,-99.99,WSDL version 420,2013-11-19 16:11:00,
2013-11-19 11:17:00,48.8,28.2,29.94,SE,143,6.2,8.5,44,-99.99,,,-99.99,WSDL version 420,2013-11-19 16:17:00,
2013-11-19 11:23:00,48.6,27.0,29.94,ESE,120,3.6,8.5,43,-99.99,,,-99.99,WSDL version 420,2013-11-19 16:23:00,
2013-11-19 11:29:00,48.3,26.9,29.94,NE,45,7.6,7.6,43,-99.99,,,-99.99,WSDL version 420,2013-11-19 16:29:00,
2013-11-19 11:35:00,48.6,27.1,29.94,East,101,3.0,7.6,43,-99.99,,,-99.99,WSDL version 420,2013-11-19 16:35:00,
2013-11-19 11:41:00,48.5,27.0,29.94,ENE,75,5.1,6.3,43,-99.99,,,-99.99,WSDL version 420,2013-11-19 16:41:00,
2013-11-19 11:47:00,48.2,26.8,29.94,SE,135,5.1,6.3,43,-99.99,,,-99.99,WSDL version 420,2013-11-19 16:47:00,
2013-11-19 11:53:00,48.7,27.4,29.94,WNW,300,5.4,6.0,44,-99.99,,,-99.99,WSDL version 420,2013-11-19 16:53:00,
2013-11-19 11:59:00,48.4,26.4,29.94,SE,128,6.3,6.5,42,-99.99,,,-99.99,WSDL version 420,2013-11-19 16:59:00,
2013-11-19 12:05:00,48.0,27.2,29.94,East,90,4.6,8.7,45,-99.99,,,-99.99,WSDL version 420,2013-11-19 17:05:00,
2013-11-19 12:11:00,47.1,25.8,29.94,SE,135,3.7,5.4,43,-99.99,,,-99.99,WSDL version 420,2013-11-19 17:11:00,
2013-11-19 12:17:00,46.9,25.8,29.94,SSE,163,3.7,10.5,43,-99.99,,,-99.99,WSDL version 420,2013-11-19 17:17:00,
2013-11-19 12:23:00,46.2,25.3,29.97,ESE,120,2.2,5.8,43,-99.99,,,-99.99,WSDL version 420,2013-11-19 17:23:00,
2013-11-19 12:29:00,45.6,24.9,29.97,SSE,150,2.7,4.9,44,-99.99,,,-99.99,WSDL version 420,2013-11-19 17:29:00,
2013-11-19 12:35:00,45.6,24.9,29.97,SSE,150,2.5,4.9,44,-99.99,,,-99.99,WSDL version 420,2013-11-19 17:35:00,
2013-11-19 12:41:00,46.0,25.5,29.97,SSE,158,3.7,6.0,44,-99.99,,,-99.99,WSDL version 420,2013-11-19 17:41:00,
2013-11-19 12:43:00,45.9,25.4,29.97,SSW,203,3.7,6.3,44,-99.99,,,-99.99,WSDL version 420,2013-11-19 17:43:00,
2013-11-19 12:49:00,45.0,24.6,29.97,East,101,3.4,6.3,44,-99.99,,,-99.99,WSDL version 420,2013-11-19 17:49:00,
2013-11-19 12:55:00,44.7,24.2,29.97,ESE,113,3.4,4.0,44,-99.99,,,-99.99,WSDL version 420,2013-11-19 17:55:00,
2013-11-19 13:01:00,44.9,24.1,29.97,ESE,113,2.8,7.6,44,-99.99,,,-99.99,WSDL version 420,2013-11-19 18:01:00,
2013-11-19 13:07:00,46.0,25.3,29.97,SSE,158,2.5,3.6,44,-99.99,,,-99.99,WSDL version 420,2013-11-19 18:07:00,
2013-11-19 13:13:00,45.4,24.6,29.97,SSE,150,3.9,4.9,43,-99.99,,,-99.99,WSDL version 420,2013-11-19 18:13:00,
2013-11-19 13:19:00,44.2,23.8,29.97,East,101,4.0,5.6,44,-99.99,,,-99.99,WSDL version 420,2013-11-19 18:19:00,
2013-11-19 13:27:00,44.2,23.7,29.97,SE,135,6.3,6.3,44,-99.99,,,-99.99,WSDL version 420,2013-11-19 18:27:00,
2013-11-19 13:33:00,43.5,23.1,29.97,SSW,208,2.0,6.3,44,-99.99,,,-99.99,WSDL version 420,2013-11-19 18:33:00,
2013-11-19 13:39:00,43.4,23.3,30.00,NNE,15,2.0,4.0,45,-99.99,,,-99.99,WSDL version 420,2013-11-19 18:39:00,
2013-11-19 13:45:00,43.9,23.8,30.00,SSW,203,2.0,6.5,44,-99.99,,,-99.99,WSDL version 420,2013-11-19 18:45:00,
2013-11-19 13:51:00,44.0,23.9,30.00,East,98,2.9,5.6,45,-99.99,,,-99.99,WSDL version 420,2013-11-19 18:51:00,
2013-11-19 13:57:00,43.7,23.4,30.00,ENE,75,3.0,5.6,45,-99.99,,,-99.99,WSDL version 420,2013-11-19 18:57:00,
2013-11-19 14:03:00,43.6,23.7,30.00,ESE,118,3.7,4.9,45,-99.99,,,-99.99,WSDL version 420,2013-11-19 19:03:00,
2013-11-19 14:09:00,43.6,23.3,30.00,NNW,338,4.0,6.0,45,-99.99,,,-99.99,WSDL version 420,2013-11-19 19:09:00,
2013-11-19 14:15:00,43.0,22.6,30.00,East,79,2.7,4.3,44,-99.99,,,-99.99,WSDL version 420,2013-11-19 19:15:00,
2013-11-19 14:21:00,42.7,22.9,30.00,ENE,75,3.1,4.0,45,-99.99,,,-99.99,WSDL version 420,2013-11-19 19:21:00,
2013-11-19 14:22:00,42.7,22.8,30.00,East,83,2.5,4.0,45,-99.99,,,-99.99,WSDL version 420,2013-11-19 19:22:00,
2013-11-19 14:28:00,42.8,23.3,30.00,SE,124,2.0,5.4,46,-99.99,,,-99.99,WSDL version 420,2013-11-19 19:28:00,
2013-11-19 14:35:00,43.0,23.1,30.03,East,96,3.4,4.9,45,-99.99,,,-99.99,WSDL version 420,2013-11-19 19:35:00,
2013-11-19 14:41:00,42.9,23.2,30.03,WNW,293,3.0,4.7,45,-99.99,,,-99.99,WSDL version 420,2013-11-19 19:41:00,
2013-11-19 14:47:00,42.7,23.1,30.03,SW,231,1.8,4.7,46,-99.99,,,-99.99,WSDL version 420,2013-11-19 19:47:00,
2013-11-19 14:53:00,42.6,23.2,30.03,ESE,113,4.0,4.3,46,-99.99,,,-99.99,WSDL version 420,2013-11-19 19:53:00,
2013-11-19 14:59:00,42.4,23.1,30.03,South,180,2.1,4.7,46,-99.99,,,-99.99,WSDL version 420,2013-11-19 19:59:00,
2013-11-19 15:05:00,42.7,23.4,30.03,East,90,3.2,5.8,46,-99.99,,,-99.99,WSDL version 420,2013-11-19 20:05:00,
2013-11-19 15:11:00,42.5,23.2,30.03,East,90,2.9,5.8,46,-99.99,,,-99.99,WSDL version 420,2013-11-19 20:11:00,
2013-11-19 15:17:00,42.6,23.3,30.03,SE,135,1.6,3.6,46,-99.99,,,-99.99,WSDL version 420,2013-11-19 20:17:00,
2013-11-19 15:23:00,42.6,23.1,30.03,SW,225,1.1,3.8,46,-99.99,,,-99.99,WSDL version 420,2013-11-19 20:23:00,
2013-11-19 15:29:00,42.3,23.0,30.03,WSW,255,2.6,7.2,46,-99.99,,,-99.99,WSDL version 420,2013-11-19 20:29:00,
2013-11-19 15:35:00,41.8,22.5,30.06,ENE,75,1.9,7.2,46,-99.99,,,-99.99,WSDL version 420,2013-11-19 20:35:00,
2013-11-19 15:41:00,41.4,22.0,30.06,WSW,240,2.6,7.2,46,-99.99,,,-99.99,WSDL version 420,2013-11-19 20:41:00,
2013-11-19 15:47:00,41.2,22.0,30.06,SE,129,4.7,5.4,46,-99.99,,,-99.99,WSDL version 420,2013-11-19 20:47:00,
2013-11-19 15:53:00,40.7,21.5,30.06,West,270,2.5,5.4,46,-99.99,,,-99.99,WSDL version 420,2013-11-19 20:53:00,
2013-11-19 15:59:00,40.5,21.1,30.06,NNW,330,2.9,4.9,45,-99.99,,,-99.99,WSDL version 420,2013-11-19 20:59:00,
2013-11-19 16:05:00,40.2,20.9,30.06,SE,135,4.8,5.6,45,-99.99,,,-99.99,WSDL version 420,2013-11-19 21:05:00,
2013-11-19 16:11:00,40.0,20.9,30.06,SE,135,4.1,5.6,46,-99.99,,,-99.99,WSDL version 420,2013-11-19 21:11:00,
2013-11-19 16:17:00,40.0,20.9,30.06,ESE,113,2.7,4.9,46,-99.99,,,-99.99,WSDL version 420,2013-11-19 21:17:00,
2013-11-19 16:23:00,39.9,20.9,30.09,ESE,105,0.9,4.0,46,-99.99,,,-99.99,WSDL version 420,2013-11-19 21:23:00,
2013-11-19 16:29:00,39.9,20.8,30.09,SE,135,1.4,3.1,46,-99.99,,,-99.99,WSDL version 420,2013-11-19 21:29:00,
2013-11-19 16:35:00,39.7,20.6,30.09,SSE,150,3.4,3.8,46,-99.99,,,-99.99,WSDL version 420,2013-11-19 21:35:00,
2013-11-19 16:41:00,39.6,20.5,30.09,WSW,255,4.9,7.4,46,-99.99,,,-99.99,WSDL version 420,2013-11-19 21:41:00,
2013-11-19 16:47:00,39.3,20.5,30.09,East,90,1.3,7.4,47,-99.99,,,-99.99,WSDL version 420,2013-11-19 21:47:00,
2013-11-19 16:53:00,38.8,20.3,30.09,South,180,1.4,2.7,47,-99.99,,,-99.99,WSDL version 420,2013-11-19 21:53:00,
2013-11-19 16:59:00,38.6,20.1,30.09,SE,135,3.0,3.8,47,-99.99,,,-99.99,WSDL version 420,2013-11-19 21:59:00,
2013-11-19 17:05:00,38.0,19.6,30.09,NW,326,1.2,3.8,47,-99.99,,,-99.99,WSDL version 420,2013-11-19 22:05:00,
2013-11-19 17:11:00,37.7,19.8,30.09,South,180,2.3,2.5,48,-99.99,,,-99.99,WSDL version 420,2013-11-19 22:11:00,
2013-11-19 17:17:00,37.3,19.5,30.09,East,84,0.8,2.7,48,-99.99,,,-99.99,WSDL version 420,2013-11-19 22:17:00,
2013-11-19 17:24:00,37.5,19.6,30.12,SE,135,2.8,2.9,48,-99.99,,,-99.99,WSDL version 420,2013-11-19 22:24:00,
2013-11-19 17:30:00,37.2,19.8,30.12,SE,135,2.8,4.0,49,-99.99,,,-99.99,WSDL version 420,2013-11-19 22:30:00,
2013-11-19 17:36:00,37.0,19.6,30.12,SSE,165,3.1,4.0,49,-99.99,,,-99.99,WSDL version 420,2013-11-19 22:36:00,
2013-11-19 17:42:00,37.0,19.6,30.12,SSW,203,1.0,3.4,49,-99.99,,,-99.99,WSDL version 420,2013-11-19 22:42:00,
2013-11-19 17:48:00,36.4,19.5,30.12,NE,45,0.0,2.0,50,-99.99,,,-99.99,WSDL version 420,2013-11-19 22:48:00,
2013-11-19 17:54:00,36.2,19.4,30.12,North,360,0.0,3.4,50,-99.99,,,-99.99,WSDL version 420,2013-11-19 22:54:00,
2013-11-19 18:00:00,35.8,19.0,30.12,East,90,2.2,2.9,50,-99.99,,,-99.99,WSDL version 420,2013-11-19 23:00:00,
2013-11-19 18:06:00,35.8,19.0,30.15,ENE,68,1.3,2.9,50,-99.99,,,-99.99,WSDL version 420,2013-11-19 23:06:00,
2013-11-19 18:12:00,35.4,19.1,30.15,East,90,1.1,2.0,51,-99.99,,,-99.99,WSDL version 420,2013-11-19 23:12:00,
2013-11-19 18:18:00,35.3,19.0,30.15,East,90,0.0,2.5,51,-99.99,,,-99.99,WSDL version 420,2013-11-19 23:18:00,
2013-11-19 18:24:00,34.9,18.6,30.15,ENE,75,1.8,2.7,51,-99.99,,,-99.99,WSDL version 420,2013-11-19 23:24:00,
2013-11-19 18:30:00,35.4,19.1,30.15,West,270,2.5,2.7,51,-99.99,,,-99.99,WSDL version 420,2013-11-19 23:30:00,
2013-11-19 18:36:00,35.4,19.1,30.15,East,90,2.5,2.5,51,-99.99,,,-99.99,WSDL version 420,2013-11-19 23:36:00,
2013-11-19 18:42:00,35.1,18.8,30.15,NE,45,1.3,3.4,51,-99.99,,,-99.99,WSDL version 420,2013-11-19 23:42:00,
2013-11-19 18:48:00,35.1,18.8,30.15,East,90,2.2,2.7,51,-99.99,,,-99.99,WSDL version 420,2013-11-19 23:48:00,
2013-11-19 18:54:00,34.6,18.4,30.18,East,83,2.0,2.7,51,-99.99,,,-99.99,WSDL version 420,2013-11-19 23:54:00,
2013-11-19 19:00:00,34.6,18.4,30.18,NNE,23,1.3,2.9,51,-99.99,,,-99.99,WSDL version 420,2013-11-20 00:00:00,
2013-11-19 19:06:00,34.4,18.4,30.18,NE,45,2.0,3.1,52,-99.99,,,-99.99,WSDL version 420,2013-11-20 00:06:00,
2013-11-19 19:12:00,34.5,18.3,30.18,North,360,2.2,2.2,51,-99.99,,,-99.99,WSDL version 420,2013-11-20 00:12:00,
2013-11-19 19:18:00,34.3,18.5,30.18,SE,124,1.3,2.2,52,-99.99,,,-99.99,WSDL version 420,2013-11-20 00:18:00,
2013-11-19 19:24:00,33.7,17.8,30.18,ENE,68,2.5,2.5,52,-99.99,,,-99.99,WSDL version 420,2013-11-20 00:24:00,
2013-11-19 19:30:00,33.6,17.8,30.18,NW,315,0.0,2.5,52,-99.99,,,-99.99,WSDL version 420,2013-11-20 00:30:00,
2013-11-19 19:36:00,33.8,18.2,30.21,NE,53,1.3,4.0,53,-99.99,,,-99.99,WSDL version 420,2013-11-20 00:36:00,
2013-11-19 19:42:00,33.4,17.7,30.21,ENE,60,2.0,5.4,52,-99.99,,,-99.99,WSDL version 420,2013-11-20 00:42:00,
2013-11-19 19:48:00,33.6,18.0,30.21,NNW,338,1.7,4.7,52,-99.99,,,-99.99,WSDL version 420,2013-11-20 00:48:00,
2013-11-19 19:54:00,33.3,18.0,30.21,NE,36,1.3,3.6,53,-99.99,,,-99.99,WSDL version 420,2013-11-20 00:54:00,
2013-11-19 20:00:00,33.0,17.7,30.21,West,270,0.0,3.6,53,-99.99,,,-99.99,WSDL version 420,2013-11-20 01:00:00,
2013-11-19 20:06:00,32.9,17.6,30.21,NE,56,3.3,4.9,53,-99.99,,,-99.99,WSDL version 420,2013-11-20 01:06:00,
2013-11-19 20:12:00,32.8,17.7,30.21,ENE,60,3.0,5.8,54,-99.99,,,-99.99,WSDL version 420,2013-11-20 01:12:00,
2013-11-19 20:19:00,33.1,18.2,30.21,NE,53,2.3,5.8,54,-99.99,,,-99.99,WSDL version 420,2013-11-20 01:19:00,
2013-11-19 20:25:00,33.0,18.1,30.21,NNE,30,2.2,2.9,54,-99.99,,,-99.99,WSDL version 420,2013-11-20 01:25:00,
2013-11-19 20:31:00,32.8,18.0,30.21,NE,45,4.0,4.9,54,-99.99,,,-99.99,WSDL version 420,2013-11-20 01:31:00,
2013-11-19 20:37:00,32.5,17.7,30.24,NW,315,1.2,4.9,54,-99.99,,,-99.99,WSDL version 420,2013-11-20 01:37:00,
2013-11-19 20:43:00,32.6,17.8,30.24,SE,146,2.3,3.1,54,-99.99,,,-99.99,WSDL version 420,2013-11-20 01:43:00,
2013-11-19 20:49:00,32.7,17.7,30.24,North,8,2.9,3.8,54,-99.99,,,-99.99,WSDL version 420,2013-11-20 01:49:00,
2013-11-19 20:55:00,32.8,18.0,30.24,ENE,68,0.9,4.5,54,-99.99,,,-99.99,WSDL version 420,2013-11-20 01:55:00,
2013-11-19 21:01:00,32.7,17.9,30.24,NW,323,0.0,4.5,54,-99.99,,,-99.99,WSDL version 420,2013-11-20 02:01:00,
2013-11-19 21:07:00,32.4,17.8,30.24,NE,50,1.8,4.0,54,-99.99,,,-99.99,WSDL version 420,2013-11-20 02:07:00,
2013-11-19 21:13:00,32.5,17.7,30.24,North,360,2.6,4.0,54,-99.99,,,-99.99,WSDL version 420,2013-11-20 02:13:00,
2013-11-19 21:19:00,32.5,17.7,30.24,ENE,75,3.3,3.6,54,-99.99,,,-99.99,WSDL version 420,2013-11-20 02:19:00,
2013-11-19 21:25:00,32.5,17.7,30.24,SSE,165,3.0,4.0,54,-99.99,,,-99.99,WSDL version 420,2013-11-20 02:25:00,
2013-11-19 21:31:00,32.4,17.6,30.24,North,8,1.3,4.0,54,-99.99,,,-99.99,WSDL version 420,2013-11-20 02:31:00,
2013-11-19 21:37:00,32.2,17.5,30.24,NW,315,2.6,5.6,54,-99.99,,,-99.99,WSDL version 420,2013-11-20 02:37:00,
2013-11-19 21:43:00,32.3,17.5,30.24,ENE,75,0.7,5.6,54,-99.99,,,-99.99,WSDL version 420,2013-11-20 02:43:00,
2013-11-19 21:49:00,32.3,17.5,30.24,NNE,15,0.7,5.6,54,-99.99,,,-99.99,WSDL version 420,2013-11-20 02:49:00,
2013-11-19 21:55:00,32.3,17.5,30.24,SSE,158,1.1,5.6,54,-99.99,,,-99.99,WSDL version 420,2013-11-20 02:55:00,
2013-11-19 22:01:00,32.1,17.8,30.24,East,90,2.7,4.3,54,-99.99,,,-99.99,WSDL version 420,2013-11-20 03:01:00,
2013-11-19 22:07:00,32.1,17.9,30.24,SE,135,2.2,2.9,54,-99.99,,,-99.99,WSDL version 420,2013-11-20 03:07:00,
2013-11-19 22:13:00,32.0,18.3,30.24,ESE,120,1.2,5.8,54,-99.99,,,-99.99,WSDL version 420,2013-11-20 03:13:00,
2013-11-19 22:19:00,32.1,18.4,30.24,NNW,342,1.5,3.6,54,-99.99,,,-99.99,WSDL version 420,2013-11-20 03:19:00,
2013-11-19 22:25:00,31.9,18.8,30.24,NE,45,4.2,4.9,54,-99.99,,,-99.99,WSDL version 420,2013-11-20 03:25:00,
2013-11-19 22:31:00,31.9,18.8,30.24,ENE,60,5.7,5.8,54,-99.99,,,-99.99,WSDL version 420,2013-11-20 03:31:00,
2013-11-19 22:37:00,31.7,18.6,30.24,ESE,105,4.0,5.8,54,-99.99,,,-99.99,WSDL version 420,2013-11-20 03:37:00,
2013-11-19 22:43:00,31.8,18.7,30.24,South,169,3.9,5.6,54,-99.99,,,-99.99,WSDL version 420,2013-11-20 03:43:00,
2013-11-19 22:49:00,31.6,18.5,30.24,East,90,2.9,5.4,54,-99.99,,,-99.99,WSDL version 420,2013-11-20 03:49:00,
2013-11-19 22:55:00,31.4,18.3,30.24,ESE,113,3.3,4.0,54,-99.99,,,-99.99,WSDL version 420,2013-11-20 03:55:00,
2013-11-19 23:01:00,31.6,18.5,30.24,NE,45,2.9,3.6,54,-99.99,,,-99.99,WSDL version 420,2013-11-20 04:01:00,
2013-11-19 23:07:00,31.5,18.4,30.27,NE,56,2.7,4.3,54,-99.99,,,-99.99,WSDL version 420,2013-11-20 04:07:00,
2013-11-19 23:14:00,31.5,18.4,30.27,East,83,2.5,4.7,54,-99.99,,,-99.99,WSDL version 420,2013-11-20 04:14:00,
2013-11-19 23:20:00,31.5,18.4,30.27,ESE,120,4.4,5.4,54,-99.99,,,-99.99,WSDL version 420,2013-11-20 04:20:00,
2013-11-19 23:26:00,31.6,18.5,30.27,SSE,158,3.6,5.4,54,-99.99,,,-99.99,WSDL version 420,2013-11-20 04:26:00,
2013-11-19 23:32:00,31.2,17.9,30.27,ENE,73,5.4,6.3,53,-99.99,,,-99.99,WSDL version 420,2013-11-20 04:32:00,
2013-11-19 23:38:00,31.5,18.1,30.27,SE,146,3.6,6.3,53,-99.99,,,-99.99,WSDL version 420,2013-11-20 04:38:00,
2013-11-19 23:44:00,31.4,17.9,30.27,South,180,4.5,4.5,53,-99.99,,,-99.99,WSDL version 420,2013-11-20 04:44:00,
2013-11-19 23:50:00,31.3,17.9,30.27,SE,135,4.3,6.0,53,-99.99,,,-99.99,WSDL version 420,2013-11-20 04:50:00,
2013-11-19 23:56:00,31.4,18.1,30.27,SSW,203,1.4,6.0,53,-99.99,,,-99.99,WSDL version 420,2013-11-20 04:56:00,